Regional Weather Roundup
Issued by NWS Little Rock, AR

Home | Current Version | Previous Version | Graphics & Text | Print | Product List | Glossary On
Versions: 1 2 3 4 5 6 7 8 9 10 11 12 13 14 15 16 17 18 19 20 21 22 23 24 25 26 27 28 29 30 31 32
000
ASUS44 KLZK 160005
RWRLZK

WEATHER ROUNDUP FOR ARKANSAS
NATIONAL WEATHER SERVICE LITTLE ROCK AR
700 PM CDT SUN OCT 15 2017

NOTE: "FAIR" INDICATES FEW OR NO CLOUDS BELOW 12,000 FEET WITH NO
SIGNIFICANT WEATHER AND/OR OBSTRUCTIONS TO VISIBILITY.

ARZ001-003-010-029-160100-
NORTHWEST ARKANSAS

CITY           SKY/WX    TMP DP  RH WIND       PRES   REMARKS
FAYETTEVILLE   CLEAR     55  43  63 N6        30.30R
6HR MIN TEMP:  55; 6HR MAX TEMP:  66;

FORT SMITH     CLEAR     64  41  42 N8        30.28R
6HR MIN TEMP:  64; 6HR MAX TEMP:  73;

HARRISON       CLEAR     57  41  55 NW8       30.29R
6HR MIN TEMP:  57; 6HR MAX TEMP:  67;

BENTONVILLE    CLEAR     57  41  55 NW7       30.33R
6HR MIN TEMP:  57; 6HR MAX TEMP:  64;

ROGERS         CLEAR     56  41  57 N6        30.32R
6HR MIN TEMP:  56; 6HR MAX TEMP:  63;

SILOAM SPGS    CLEAR     53  41  63 N8        30.33R
6HR MIN TEMP:  53; 6HR MAX TEMP:  65;

HIGHFILL       CLEAR     54  42  64 NW8       30.32R
6HR MIN TEMP:  54; 6HR MAX TEMP:  66;

SPRINGDALE     CLEAR     59  41  51 NW8       30.32R
$$

ARZ004-005-016-160100-
NORTH CENTRAL ARKANSAS

CITY           SKY/WX    TMP DP  RH WIND       PRES   REMARKS
BATESVILLE     CLEAR     63  42  46 N5        30.23R
6HR MIN TEMP:  62; 6HR MAX TEMP:  70;

FLIPPIN        CLEAR     61  41  47 N7        30.27R
6HR MIN TEMP:  61; 6HR MAX TEMP:  70;

MTN HOME       CLEAR     59  42  53 VRB7      30.26R
6HR MIN TEMP:  59; 6HR MAX TEMP:  69;

$$

ARZ040-041-160100-
WEST CENTRAL ARKANSAS

CITY           SKY/WX    TMP DP  RH WIND       PRES   REMARKS
MENA           CLEAR     64  41  42 NW8       30.25S
$$

ARZ009-017-025-026-028-160100-
NORTHEAST ARKANSAS

CITY           SKY/WX    TMP DP  RH WIND       PRES   REMARKS
CORNING        FAIR      63  46  55 N7        30.22R
JONESBORO      CLEAR     63  47  55 N3        30.20R
6HR MIN TEMP:  59; 6HR MAX TEMP:  70;

NEWPORT        CLEAR     58  47  66 N8        30.21R
6HR MIN TEMP:  58; 6HR MAX TEMP:  71;

WALNUT RIDGE     N/A     59  45  59 N8        30.21R
6HR MIN TEMP:  59; 6HR MAX TEMP:  70;

BLYTHEVILLE    CLEAR     57  51  80 N7        30.20R
6HR MIN TEMP:  57; 6HR MAX TEMP:  67;

$$

ARZ022-023-033-042-044-160100-
CENTRAL ARKANSAS

CITY           SKY/WX    TMP DP  RH WIND       PRES   REMARKS
LITTLE ROCK    MOCLDY    61  47  59 N8        30.22R
6HR MIN TEMP:  61; 6HR MAX TEMP:  72;

N LITTLE ROCK    N/A     64  46  50 N3        30.23R
6HR MIN TEMP:  61; 6HR MAX TEMP:  70;

JACKSONVILLE   CLEAR     65  47  53 CALM      30.21R
6HR MIN TEMP:  62; 6HR MAX TEMP:  73;

SEARCY         CLEAR     64  45  49 N3        30.22R
6HR MIN TEMP:  62; 6HR MAX TEMP:  71;

HOT SPRINGS    PTCLDY    68  43  40 VRB5      30.22R
6HR MIN TEMP:  67; 6HR MAX TEMP:  75;

RUSSELLVILLE   CLEAR     66  39  37 N7        30.23R
6HR MIN TEMP:  66; 6HR MAX TEMP:  74;

CLINTON        FAIR      64  41  42 VRB5      30.23R
$$

ARZ036-160100-
EAST ARKANSAS

CITY           SKY/WX    TMP DP  RH WIND       PRES   REMARKS
WEST MEMPHIS   CLEAR     60  53  77 N6        30.18R
6HR MIN TEMP:  60; 6HR MAX TEMP:  70; 6HR PCP:  0.02;

$$

ARZ050-053-066-070-073-160100-
SOUTHWEST ARKANSAS

CITY           SKY/WX    TMP DP  RH WIND       PRES   REMARKS
ARKADELPHIA    FAIR      61  50  67 N3        30.21R
6HR MIN TEMP:  61; 6HR MAX TEMP:  76;

CAMDEN         CLEAR     64  50  59 N6        30.18R
TEXARKANA      CLEAR     67  44  43 N8        30.21R
6HR MIN TEMP:  65; 6HR MAX TEMP:  76;

EL DORADO      CLEAR     64  61  90 CALM      30.18R
6HR MIN TEMP:  62; 6HR MAX TEMP:  77; 6HR PCP: TRACE;

DE QUEEN       CLEAR     65  43  44 N3        30.22R
6HR MIN TEMP:  65; 6HR MAX TEMP:  76;

$$

ARZ056-057-069-160100-
SOUTHEAST ARKANSAS

CITY           SKY/WX    TMP DP  RH WIND       PRES   REMARKS
PINE BLUFF     CLEAR     65  48  54 N9        30.19R
6HR MIN TEMP:  63; 6HR MAX TEMP:  71;

STUTTGART      CLEAR     61  51  70 N9        30.20R
6HR MIN TEMP:  61; 6HR MAX TEMP:  69; 6HR PCP: TRACE;

MONTICELLO     CLEAR     63  59  87 CALM      30.17R
6HR MIN TEMP:  63; 6HR MAX TEMP:  79; 6HR PCP:  0.05;


$$






USA.gov is the U.S. government's official web portal to all federal, state and local government web resources and services.